Weather History for Menominee, MI

Change the Weather History Date:

Friday, August 31, 2012

  Actual Average Record
Temperature  
Mean Temperature 74 °F -  
Max Temperature 78 °F 78 °F 94 °F (1991)
Min Temperature 62 °F 54 °F 43 °F (1974)
Cooling Degree Days 8    
Growing Degree Days 24 (Base 50)    
Moisture  
Dew Point 61 °F    
Average Humidity 64    
Maximum Humidity 83    
Minimum Humidity 42    
Precipitation  
Precipitation 0.00 in - - ()
Sea Level Pressure  
Sea Level Pressure 29.95 in    
Wind  
Wind Speed 5 mph (NW)    
Max Wind Speed 13 mph    
Max Gust Speed -    
Visibility 10 miles    
Events      
Averages and records for this station are not official NWS values.
T = Trace of Precipitation, MM = Missing Value Source: NWS Daily Summary

Daily Weather History Graph

Daily Weather History Graph

Search for Another Location

Airport:

Trip Planner

Search our weather history database for the weather conditions in past years. The results will help you decide how hot, cold, wet, or windy it might be!

Date:

Astronomy

Aug. 31, 2012 Rise Set
Actual Time 6:11 AM CDT 7:28 PM CDT
Civil Twilight 5:41 AM CDT 7:59 PM CDT
Nautical Twilight 5:04 AM CDT 8:35 PM CDT
Astronomical Twilight 4:25 AM CDT 9:14 PM CDT
Moon 7:10 PM CDT (8/31) 6:19 AM CDT (8/31)
Length of Visible Light 14h 17m
Length of Day
13h 16m
Full, 100% of the Moon is Illuminated
Aug 31
Full
Sep 8
Last Quarter
Sep 15
New
Sep 22
First Quarter
Sep 29
Full

Hourly Weather History & Observations

Time (CDT) Temp. Dew Point Humidity Pressure Visibility Wind Dir Wind Speed Gust Speed Precip Events Conditions
12:15 AM 78.8 °F 64.4 °F 61% 29.85 in 10.0 mi WSW 6.9 mph - N/A   Clear
12:35 AM 78.8 °F 64.4 °F 61% 29.86 in 10.0 mi West 6.9 mph - N/A   Clear
12:55 AM 78.8 °F 64.4 °F 61% 29.87 in 10.0 mi WNW 3.5 mph - N/A   Clear
1:15 AM 77.0 °F 64.4 °F 65% 29.87 in 10.0 mi Calm Calm - N/A   Clear
1:35 AM 75.2 °F 64.4 °F 69% 29.87 in 10.0 mi WSW 3.5 mph - N/A   Clear
1:55 AM 75.2 °F 64.4 °F 69% 29.86 in 10.0 mi SW 6.9 mph - N/A   Clear
2:15 AM 75.2 °F 64.4 °F 69% 29.87 in 10.0 mi WSW 4.6 mph - N/A   Clear
2:35 AM 75.2 °F 64.4 °F 69% 29.87 in 10.0 mi WSW 3.5 mph - N/A   Clear
2:55 AM 73.4 °F 64.4 °F 73% 29.88 in 10.0 mi West 4.6 mph - N/A   Clear
3:15 AM 73.4 °F 64.4 °F 73% 29.88 in 10.0 mi West 4.6 mph - N/A   Clear
3:35 AM 71.6 °F 64.4 °F 78% 29.88 in 10.0 mi Calm Calm - N/A   Clear
3:55 AM 71.6 °F 64.4 °F 78% 29.89 in 10.0 mi Calm Calm - N/A   Clear
4:15 AM 71.6 °F 66.2 °F 83% 29.90 in 10.0 mi Calm Calm - N/A   Clear
4:55 AM 69.8 °F 64.4 °F 83% 29.90 in 10.0 mi North 9.2 mph - N/A   Clear
8:35 AM 71.6 °F 60.8 °F 69% 30.02 in 10.0 mi North 5.8 mph - N/A   Clear
9:15 AM 73.4 °F 57.2 °F 57% 30.03 in 10.0 mi NNE 5.8 mph - N/A   Clear
9:35 AM 73.4 °F 57.2 °F 57% 30.03 in 10.0 mi North 9.2 mph - N/A   Clear
10:15 AM 75.2 °F 55.4 °F 50% 30.04 in 10.0 mi NE 11.5 mph - N/A   Clear
10:35 AM 75.2 °F 53.6 °F 47% 30.04 in 10.0 mi NNE 8.1 mph - N/A   Clear
10:55 AM 77.0 °F 55.4 °F 47% 30.05 in 10.0 mi NNE 8.1 mph - N/A   Clear
11:15 AM 77.0 °F 53.6 °F 44% 30.05 in 10.0 mi NNW 8.1 mph - N/A   Clear
11:35 AM 77.0 °F 53.6 °F 44% 30.04 in 10.0 mi NNW 12.7 mph - N/A   Clear
4:35 PM 78.8 °F 53.6 °F 42% 30.05 in 10.0 mi SE 8.1 mph - N/A   Clear
8:55 PM 62.6 °F 57.2 °F 82% 30.12 in 10.0 mi Calm Calm - N/A   Clear